Regional Weather Roundup
Issued by NWS

Home | Current Version | Previous Version | Graphics & Text | Print | Product List | Glossary On
Versions: 1 2 3 4 5 6 7 8 9 10 11 12 13 14 15 16 17 18 19 20 21 22 23 24 25 26 27 28 29 30 31 32 33 34 35 36 37 38 39 40 41 42 43 44 45 46 47 48 49 50
000
ASUS43 KMKX 210511
RWRWI

WISCONSIN REGIONAL WEATHER ROUNDUP
NATIONAL WEATHER SERVICE MILWAUKEE/SULLIVAN WI
1200 AM CDT SUN SEP 21 2014

NOTE: "FAIR" INDICATES FEW OR NO CLOUDS BELOW 12,000 FEET WITH NO
SIGNIFICANT WEATHER AND/OR OBSTRUCTIONS TO VISIBILITY.

WIZ001-002-006>008-014>016-023>028-210600-
NORTHWEST WISCONSIN

CITY           SKY/WX    TMP DP  RH WIND       PRES   REMARKS
SUPERIOR ARPT  LGT RAIN  55  53  94 NW7       29.73R
ASHLAND        CLOUDY    54  52  93 W5        29.70S
HAYWARD        LGT RAIN  54  53  97 W5        29.71F
SIREN          LGT RAIN  52  49  89 NW12      29.77R
RICE LAKE      RAIN      55  50  83 W14G24    29.76F
LADYSMITH      CLOUDY    56  53  92 W9        29.73F
EAU CLAIRE     MOCLDY    56  51  84 W12       29.77F
MENOMONIE      MOCLDY    58  50  74 W17G24    29.78F
NEW RICHMOND   CLEAR     54  49  83 W14G21    29.80F
OSCEOLA        CLEAR     55  50  82 W13       29.82F
$$

WIZ003>005-009-010-017-018-210600-
NORTH CENTRAL WISCONSIN

CITY           SKY/WX    TMP DP  RH WIND       PRES   REMARKS
WOODRUFF       LGT RAIN  55  52  92 N5        29.69F
RHINELANDER    CLOUDY    52  51  97 N5        29.69F
EAGLE RIVER    RAIN      53  53  99 W9        29.70S
LAND O LAKES   CLOUDY    55  52  89 CALM      29.69S
PHILLIPS       DRIZZLE   53  52  98 SW5       29.69F
TOMAHAWK       CLOUDY    51  50  96 CALM      29.70F
MEDFORD        CLOUDY    54  53  97 W7        29.71F
MERRILL        MOCLDY    53  53 100 W5        29.70F
$$

WIZ029-030-035-036-043>047-210600-
CENTRAL WISCONSIN

CITY           SKY/WX    TMP DP  RH WIND       PRES   REMARKS
WAUSAU         MOCLDY    55  54  96 NW7       29.69F
MOSINEE        PTCLDY    52  52 100 W5        29.72F
MARSHFIELD     MOCLDY    57  54  89 W12       29.73F
STEVENS POINT  PTCLDY    54  52  94 W6        29.72F
WAUPACA        PTCLDY    58  56  94 W5        29.71R
WAUTOMA        CLEAR     58  57  96 W8        29.73R
WISC RAPIDS    MOCLDY    57  54  89 W12       29.75F
CAMP DOUGLAS   PTCLDY    57  57 100 W14G20    29.77S
$$

WIZ011>013-019>022-031-037>040-048>050-210600-
NORTHEAST WISCONSIN

CITY           SKY/WX    TMP DP  RH WIND       PRES   REMARKS
ANTIGO         CLOUDY    52  51  96 N6        29.69F
STURGEON BAY   CLOUDY    57  55  94 E9        29.65F
GREEN BAY      HVY RAIN  59  57  93 W17G26    29.69R FOG
MANITOWOC      TSTM      62  58  86 W18G35    29.67R
APPLETON       CLOUDY    55  55 100 W7        29.69F
CLINTONVILLE   CLOUDY    57  55  94 W7        29.69F
OSHKOSH        CLOUDY    59  58  96 W3        29.69F
$$

WIZ032>034-041-042-053>061-210600-
SOUTHWEST WISCONSIN

CITY           SKY/WX    TMP DP  RH WIND       PRES   REMARKS
LA CROSSE      CLEAR     60  53  77 NW10      29.82R
SPARTA         CLEAR     57  52  82 W8        29.81S
VIROQUA        FAIR      56  56 100 NW12      29.83S
BOSCOBEL       MOCLDY    62  56  80 NW14G25   29.82R
PRAIRIE DU CHI MOCLDY    58  56  95 NW10G18   29.86R
PLATTEVILLE    MOCLDY    61  58  91 W15G24    29.83R
$$

WIZ056-057-062-063-064-067-068-210600-
SOUTH CENTRAL WISCONSIN

CITY           SKY/WX    TMP DP  RH WIND       PRES   REMARKS
BARABOO/DELLS  MOCLDY    59  55  88 NW13G21   29.76R
LONE ROCK      MOCLDY    66  58  75 W16G24    29.79R
WATERTOWN      CLOUDY    60  60 100 W5        29.71S
MADISON        CLOUDY    62  59  90 VRB6      29.73R
MIDDLETON      FAIR      62  61  96 W13G18    29.75R
MONROE         CLOUDY    61  61 100 W14       29.76R
JANESVILLE     CLOUDY    63  61  94 CALM      29.70F
$$

WIZ051-052-058>065-066-070>072-210600-
SOUTHEAST WISCONSIN

CITY           SKY/WX    TMP DP  RH WIND       PRES   REMARKS
MILWAUKEE      TSTM      65  60  84 W10G29    29.71R
WAUKESHA       LGT RAIN  59  57  94 NW6       29.68F
MILWAUKEE/TIMM LGT RAIN  59  55  88 CALM      29.69F
RACINE         TSTM      65  61  87 W13G33    29.73R FOG
BURLINGTON     LGT RAIN  62  60  93 W8G18     29.71R
KENOSHA        MOCLDY    68  65  90 SW12      29.69F THUNDER
FOND DU LAC    CLOUDY    60  56  86 NW7       29.70F
SHEBOYGAN      TSTM      61  57  87 W23G43    29.71R
WEST BEND      LGT RAIN  59  55  88 CALM      29.68F
JUNEAU         CLOUDY    59  58  95 W6        29.72R
$$

LSZ147-162-210600-
LAKE SUPERIOR

STATION/POSITION TIME  TEMP    WIND        PRES    WAVE
                       AIR SEA DIR/SP/G            HT/PER
                 (UTC) (F)     (DEG/KT/KT) (MB)    (FT/S)
W MID LAKE BUOY  0450   49 46   40/ 10/ 12 1006.0R   1/ 4
DEVILS ISLAND    0500   52      50/ 19/ 20 1005.9R
PORT WING        0400   55     290/  4/  6 1006.4R
SAXON HARBOR     0400   57     210/  9/ 12 1005.4S
$$

LMZ867-665-643>646-210600-
LAKE MICHIGAN

STATION/POSITION TIME  TEMP    WIND        PRES    WAVE
                       AIR SEA DIR/SP/G            HT/PER
                 (UTC) (F)     (DEG/KT/KT) (MB)    (FT/S)
N MID LAKE BUOY  0450   58 58   30/ 10/ 12 1004.6R   3/ 6
NORTHPORT PIER   0400   59     290/  6/ 12 1005.4R
SISTER BAY       0412          290/  6/  8   N/A
ALGOMA LAKESHORE 0254             CALM       N/A
KEWAUNEE LAKESHO 0400   64     280/  2/  4 1003.2F
SHEBOYGAN LAKESH 0500   64 54  300/ 28/ 36 1005.4R
PORT WASHINGTON  0440   67     270/ 22     1006.1F
ATWATER BUOY     0500   60     300/ 14/ 16 1006.6S
MILWAUKEE LAKESH 0400   69     220/  8/ 10   N/A
S MID LAKE BUOY  0450   67 63  220/ 14/ 19 1005.0F   1/ 3
KENOSHA   LAKESH 0500   69     230/  9/ 15 1005.1F
$$

TC  - TEMPERATURE IN CELSIUS
VSB - VISIBILITY IN STATUTE MILES
WCI - WIND CHILL INDEX
HX  - HEAT INDEX




USA.gov is the U.S. government's official web portal to all federal, state and local government web resources and services.